FW3892 Canton MA US current weather conditions

sailwx.info

Wind from 235 at 0 knots gusting 3

Air temperature 0.6° C
Dewpoint -6.3° C

Last reported at 2019-Dec-06 17:01 UTC.
Time now 2019-Dec-06 17:45 UTC

Location: N 42°12' W 071°08'.
View on Google Maps.

See reports from other nearby stations

  
Tides and Currents Weather Stations Pressure Air Temp Water Temp Dewpoint Dewpoint Depression Visibility Wind Speed Wind Dir Waves Ship Positions
date/time (UTC)wind fromknots sea level pressurealtimeterstation pressurevisibilityair tempwater tempwave heightnotes
2019-Dec-06 17:01 235 0 gusting 3 0.6
2019-Dec-06 16:46 283 0.6
2019-Dec-06 16:30 239 0.6
2019-Dec-06 16:16 224 0.6
2019-Dec-06 16:01 229 -0.0
2019-Dec-06 15:46 238 -0.0
2019-Dec-06 15:30 239 -0.0
2019-Dec-06 15:16 177 -0.6
2019-Dec-06 15:00 318 -0.6
2019-Dec-06 14:45 135 -0.6
2019-Dec-06 14:30 207 -1.1
2019-Dec-06 14:16 221 -1.1
2019-Dec-06 14:01 124 -1.7
2019-Dec-06 13:45 090 -2.2
2019-Dec-06 13:30 090 -2.8
2019-Dec-06 13:15 090 -3.3
2019-Dec-06 13:00 090 -3.9
2019-Dec-06 12:45 090 -5.0
2019-Dec-06 12:30 090 -5.0
2019-Dec-06 12:15 090 -5.0
2019-Dec-06 12:01 090 -5.0
2019-Dec-06 11:45 090 -5.6
2019-Dec-06 11:30 090 -6.1
2019-Dec-06 11:15 090 -6.1
2019-Dec-06 11:00 090 -6.1
2019-Dec-06 10:45 090 -5.6
2019-Dec-06 10:30 090 -5.6
2019-Dec-06 10:15 090 -5.6
2019-Dec-06 10:00 090 -5.6
2019-Dec-06 09:45 090 -5.6
2019-Dec-06 09:30 090 -5.6
2019-Dec-06 09:15 090 -5.6
2019-Dec-06 09:00 090 -5.6
2019-Dec-06 08:45 090 -5.6
2019-Dec-06 08:16 090 -5.0
2019-Dec-06 08:01 090 -5.0
2019-Dec-06 07:46 090 -5.0
2019-Dec-06 07:31 090 -4.4
2019-Dec-06 07:16 090 -4.4
2019-Dec-06 07:01 090 -3.9
2019-Dec-06 06:46 090 -3.9
2019-Dec-06 06:31 090 -3.3
2019-Dec-06 06:17 090 -3.3
2019-Dec-06 06:01 095 -2.8
2019-Dec-06 05:47 094 -2.8
2019-Dec-06 05:31 094 -2.2
2019-Dec-06 05:16 084 -1.7
2019-Dec-06 05:01 312 -1.7
2019-Dec-06 04:46 090 -1.7
2019-Dec-06 04:32 343 0 gusting 7 -1.1
2019-Dec-06 04:16 330 -1.1
2019-Dec-06 04:01 297 0 gusting 6 -1.1
2019-Dec-06 03:46 108 -1.1
2019-Dec-06 03:31 092 -1.1
2019-Dec-06 03:15 116 -1.1
2019-Dec-06 03:01 114 -1.1
2019-Dec-06 02:45 077 -0.6
2019-Dec-06 02:31 110 -0.6
2019-Dec-06 02:16 103 -0.6
2019-Dec-06 02:00 118 -0.0
2019-Dec-06 01:45 291 -0.0
2019-Dec-06 01:30 143 -0.0
2019-Dec-06 01:15 169 -0.0
2019-Dec-06 01:00 115 -0.0
2019-Dec-05 16:30 058 4.4
2019-Dec-05 16:15 091 4.4
2019-Dec-05 16:00 256 4.4
2019-Dec-05 15:45 321 0 gusting 6 3.9
2019-Dec-05 15:30 263 3.3
2019-Dec-05 15:15 149 2.2
2019-Dec-05 15:00 262 1.1
2019-Dec-05 14:45 200 0.6
2019-Dec-05 14:30 166 -0.6
2019-Dec-05 14:15 208 -1.1
2019-Dec-05 14:00 210 -2.2
2019-Dec-05 13:45 210 -3.3
2019-Dec-05 13:30 210 -3.9
2019-Dec-05 13:15 210 -3.9
2019-Dec-05 13:00 210 -4.4
2019-Dec-05 12:31 210 -4.4
2019-Dec-05 12:18 210 -4.4
2019-Dec-05 12:02 210 -4.4
2019-Dec-05 11:46 210 -4.4
2019-Dec-05 11:32 210 -3.9
2019-Dec-05 11:17 210 -3.9
2019-Dec-05 11:02 210 -3.9
2019-Dec-05 10:46 210 -3.9
2019-Dec-05 10:31 210 -3.9
2019-Dec-05 10:16 210 -3.9
2019-Dec-05 10:01 210 -3.9
2019-Dec-05 09:46 210 -3.9
2019-Dec-05 09:31 210 -3.9
2019-Dec-05 09:17 210 -3.9
2019-Dec-05 09:01 210 -3.9
2019-Dec-05 08:47 210 -3.3
2019-Dec-05 08:31 210 -3.3
2019-Dec-05 08:16 210 -3.3
2019-Dec-05 08:01 210 -3.3
2019-Dec-05 07:45 210 -2.8
2019-Dec-05 07:31 210 -2.8
2019-Dec-05 07:16 210 -2.8
2019-Dec-05 07:02 210 -2.8
2019-Dec-05 06:46 210 -2.8
2019-Dec-05 06:31 210 -2.8
2019-Dec-05 06:15 210 -2.2
2019-Dec-05 06:01 210 -2.2
2019-Dec-05 05:46 210 -2.2
2019-Dec-05 05:31 210 -1.7
2019-Dec-05 05:16 210 -1.7
2019-Dec-05 05:01 210 -1.1
2019-Dec-05 04:46 210 -1.1
2019-Dec-05 04:30 210 -1.1
2019-Dec-05 04:15 210 -1.1
2019-Dec-05 04:00 210 -1.1
2019-Dec-05 03:45 210 -1.1
2019-Dec-05 03:30 210 -1.1
2019-Dec-05 03:16 210 -1.1
2019-Dec-05 03:01 210 -1.1
2019-Dec-05 02:45 210 -0.6
2019-Dec-05 02:30 210 -0.6
2019-Dec-05 02:15 210 -0.6
2019-Dec-05 02:00 210 -0.6
2019-Dec-05 01:45 210 -0.6
2019-Dec-05 01:30 210 -0.6
2019-Dec-05 01:15 210 -0.6
2019-Dec-05 01:01 210 -0.6
2019-Dec-05 00:46 210 -0.6
2019-Dec-05 00:31 210 -0.6
2019-Dec-05 00:16 210 -0.6
2019-Dec-05 00:01 210 -0.0
2019-Dec-04 23:46 210 -0.0
2019-Dec-04 23:32 210 -0.0
2019-Dec-04 23:16 210 -0.0
2019-Dec-04 23:00 210 -0.0
2019-Dec-04 22:47 210 -0.0
2019-Dec-04 22:30 210 -0.0
2019-Dec-04 22:16 210 -0.0
2019-Dec-04 22:01 210 -0.0
2019-Dec-04 21:46 210 -0.0
2019-Dec-04 21:31 210 -0.0
2019-Dec-04 21:16 210 0.6
2019-Dec-04 21:01 210 0.6
2019-Dec-04 20:46 210 0.6
2019-Dec-04 20:31 210 1.1
2019-Dec-04 20:16 210 1.1
2019-Dec-04 20:01 210 1.1
2019-Dec-04 19:46 210 1.1
2019-Dec-04 19:32 210 1.7
2019-Dec-04 19:16 210 1.7
2019-Dec-04 19:00 223 1.7
2019-Dec-04 18:45 217 2.2
2019-Dec-04 18:30 181 1.7
2019-Dec-04 18:15 221 1.1
2019-Dec-04 18:01 205 1.1
2019-Dec-04 17:45 205 1.1
2019-Dec-04 17:30 223 1.1
2019-Dec-04 17:16 191 1.1